Weather History for Oxford, CT

Change the Weather History Date:

Wednesday, September 18, 2013

  Actual Average Record
Temperature  
Mean Temperature 54 °F -  
Max Temperature 69 °F 68 °F 78 °F (2006)
Min Temperature 39 °F 51 °F 39 °F (2013)
Degree Days  
Heating Degree Days 11    
Growing Degree Days 4 (Base 50)    
Moisture  
Dew Point 41 °F    
Average Humidity 64    
Maximum Humidity 87    
Minimum Humidity 38    
Precipitation  
Precipitation 0.00 in - - ()
Sea Level Pressure  
Sea Level Pressure 30.28 in    
Wind  
Wind Speed 2 mph (West)    
Max Wind Speed 7 mph    
Max Gust Speed -    
Visibility 10 miles    
Events      
Averages and records for this station are not official NWS values.
T = Trace of Precipitation, MM = Missing Value Source: NWS Daily Summary

Daily Weather History Graph

Daily Weather History Graph

Search for Another Location

Airport:

Trip Planner

Search our weather history database for the weather conditions in past years. The results will help you decide how hot, cold, wet, or windy it might be!

Date:

Astronomy

Sep. 18, 2013 Rise Set
Actual Time 6:36 AM EDT 6:56 PM EDT
Civil Twilight 6:08 AM EDT 7:23 PM EDT
Nautical Twilight 5:35 AM EDT 7:56 PM EDT
Astronomical Twilight 5:02 AM EDT 8:29 PM EDT
Moon 6:17 PM EDT (9/18) 5:35 AM EDT (9/18)
Length of Visible Light 13h 15m
Length of Day
12h 20m
Waxing Gibbous, 99% of the Moon is Illuminated
Sep 18
Waxing Gibbous
Sep 19
Full
Sep 26
Last Quarter
Oct 4
New
Oct 11
First Quarter

Hourly Weather History & Observations

Time (EDT) Temp. Windchill Dew Point Humidity Pressure Visibility Wind Dir Wind Speed Gust Speed Precip Events Conditions
12:15 AM 42.8 °F - 37.4 °F 81% 30.36 in 10.0 mi Calm Calm - N/A   Clear
12:35 AM 42.8 °F - 35.6 °F 76% 30.36 in 10.0 mi Calm Calm - N/A   Clear
12:55 AM 41.0 °F - 35.6 °F 81% 30.37 in 10.0 mi Calm Calm - N/A   Clear
1:15 AM 39.2 °F 37.0 °F 35.6 °F 87% 30.36 in 10.0 mi North 3.5 mph - N/A   Clear
1:35 AM 41.0 °F - 35.6 °F 81% 30.36 in 10.0 mi Calm Calm - N/A   Clear
2:15 AM 41.0 °F 39.0 °F 35.6 °F 81% 30.35 in 10.0 mi North 3.5 mph - N/A   Clear
2:35 AM 39.2 °F - 35.6 °F 87% 30.35 in 10.0 mi Calm Calm - N/A   Clear
2:55 AM 39.2 °F - 35.6 °F 87% 30.35 in 10.0 mi Calm Calm - N/A   Clear
3:15 AM 39.2 °F - 35.6 °F 87% 30.34 in 10.0 mi Calm Calm - N/A   Clear
3:35 AM 39.2 °F - 33.8 °F 81% 30.34 in 10.0 mi Calm Calm - N/A   Clear
3:55 AM 39.2 °F 37.0 °F 35.6 °F 87% 30.34 in 10.0 mi North 3.5 mph - N/A   Clear
4:15 AM 39.2 °F 37.0 °F 35.6 °F 87% 30.34 in 10.0 mi North 3.5 mph - N/A   Clear
4:35 AM 39.2 °F - 33.8 °F 81% 30.33 in 10.0 mi Calm Calm - N/A   Clear
4:55 AM 39.2 °F - 33.8 °F 81% 30.34 in 10.0 mi Calm Calm - N/A   Clear
5:15 AM 39.2 °F - 33.8 °F 81% 30.34 in 10.0 mi Calm Calm - N/A   Clear
5:35 AM 39.2 °F - 33.8 °F 81% 30.33 in 10.0 mi Calm Calm - N/A   Clear
5:55 AM 39.2 °F - 33.8 °F 81% 30.33 in 10.0 mi Calm Calm - N/A   Clear
6:15 AM 39.2 °F - 33.8 °F 81% 30.34 in 10.0 mi Calm Calm - N/A   Clear
6:35 AM 39.2 °F - 33.8 °F 81% 30.34 in 10.0 mi Calm Calm - N/A   Clear
6:45 AM 39.2 °F - 33.8 °F 81% 30.34 in 10.0 mi Calm Calm - N/A   Clear
6:55 AM 39.2 °F - 33.8 °F 81% 30.34 in 10.0 mi Calm Calm - N/A   Clear
7:15 AM 39.2 °F 37.0 °F 33.8 °F 81% 30.34 in 10.0 mi North 3.5 mph - N/A   Clear
7:35 AM 42.8 °F - 35.6 °F 76% 30.34 in 10.0 mi Calm Calm - N/A   Clear
7:45 AM 41.0 °F - 35.6 °F 81% 30.34 in 10.0 mi Calm Calm - N/A   Clear
7:55 AM 44.6 °F - 39.2 °F 81% 30.34 in 10.0 mi Calm Calm - N/A   Clear
8:15 AM 48.2 °F - 42.8 °F 82% 30.34 in 10.0 mi North 3.5 mph - N/A   Clear
8:35 AM 51.8 °F - 42.8 °F 71% 30.34 in 10.0 mi Calm Calm - N/A   Clear
8:45 AM 51.8 °F - 42.8 °F 71% 30.34 in 10.0 mi Calm Calm - N/A   Clear
8:55 AM 51.8 °F - 44.6 °F 76% 30.34 in 10.0 mi NW 3.5 mph - N/A   Clear
9:15 AM 55.4 °F - 44.6 °F 67% 30.34 in 10.0 mi NNW 3.5 mph - N/A   Clear
9:35 AM 55.4 °F - 44.6 °F 67% 30.33 in 10.0 mi West 4.6 mph - N/A   Clear
9:45 AM 55.4 °F - 44.6 °F 67% 30.33 in 10.0 mi Calm Calm - N/A   Clear
9:55 AM 57.2 °F - 44.6 °F 63% 30.32 in 10.0 mi Calm Calm - N/A   Clear
10:15 AM 57.2 °F - 44.6 °F 63% 30.32 in 10.0 mi WNW 3.5 mph - N/A   Clear
10:35 AM 59.0 °F - 44.6 °F 59% 30.31 in 10.0 mi NW 5.8 mph - N/A   Clear
10:45 AM 59.0 °F - 44.6 °F 59% 30.31 in 10.0 mi NNW 6.9 mph - N/A   Clear
10:55 AM 60.8 °F - 44.6 °F 55% 30.31 in 10.0 mi West 5.8 mph - N/A   Clear
11:15 AM 60.8 °F - 42.8 °F 52% 30.31 in 10.0 mi NW 3.5 mph - N/A   Clear
11:35 AM 62.6 °F - 44.6 °F 52% 30.30 in 10.0 mi West 3.5 mph - N/A   Clear
11:45 AM 60.8 °F - 44.6 °F 55% 30.30 in 10.0 mi NW 4.6 mph - N/A   Clear
11:55 AM 62.6 °F - 46.4 °F 55% 30.30 in 10.0 mi West 3.5 mph - N/A   Clear
12:15 PM 62.6 °F - 44.6 °F 52% 30.29 in 10.0 mi West 4.6 mph - N/A   Clear
12:35 PM 64.4 °F - 44.6 °F 49% 30.28 in 10.0 mi WNW 3.5 mph - N/A   Clear
12:45 PM 64.4 °F - 44.6 °F 49% 30.28 in 10.0 mi West 3.5 mph - N/A   Clear
12:55 PM 64.4 °F - 44.6 °F 49% 30.28 in 10.0 mi SW 3.5 mph - N/A   Clear
1:35 PM 66.2 °F - 42.8 °F 43% 30.26 in 10.0 mi South 4.6 mph - N/A   Clear
1:45 PM 66.2 °F - 44.6 °F 46% 30.26 in 10.0 mi Variable 4.6 mph - N/A   Clear
1:55 PM 66.2 °F - 42.8 °F 43% 30.25 in 10.0 mi WNW 5.8 mph - N/A   Clear
2:15 PM 66.2 °F - 44.6 °F 46% 30.25 in 10.0 mi South 5.8 mph - N/A   Clear
2:35 PM 66.2 °F - 44.6 °F 46% 30.24 in 10.0 mi WSW 3.5 mph - N/A   Clear
2:45 PM 68.0 °F - 44.6 °F 43% 30.24 in 10.0 mi SSW 5.8 mph - N/A   Clear
2:55 PM 66.2 °F - 44.6 °F 46% 30.23 in 10.0 mi South 4.6 mph - N/A   Clear
3:15 PM 68.0 °F - 42.8 °F 40% 30.23 in 10.0 mi SW 4.6 mph - N/A   Clear
3:35 PM 69.8 °F - 42.8 °F 38% 30.22 in 10.0 mi SW 4.6 mph - N/A   Clear
3:45 PM 68.0 °F - 42.8 °F 40% 30.22 in 10.0 mi WSW 4.6 mph - N/A   Clear
3:55 PM 68.0 °F - 42.8 °F 40% 30.22 in 10.0 mi Calm Calm - N/A   Clear
4:15 PM 68.0 °F - 42.8 °F 40% 30.22 in 10.0 mi Calm Calm - N/A   Clear
4:35 PM 68.0 °F - 44.6 °F 43% 30.22 in 10.0 mi SW 4.6 mph - N/A   Clear
4:45 PM 68.0 °F - 44.6 °F 43% 30.21 in 10.0 mi West 3.5 mph - N/A   Clear
4:55 PM 68.0 °F - 44.6 °F 43% 30.21 in 10.0 mi SSW 5.8 mph - N/A   Clear
5:15 PM 68.0 °F - 44.6 °F 43% 30.21 in 10.0 mi SSW 3.5 mph - N/A   Clear
5:35 PM 68.0 °F - 44.6 °F 43% 30.21 in 10.0 mi SSW 4.6 mph - N/A   Clear
5:55 PM 66.2 °F - 44.6 °F 46% 30.21 in 10.0 mi Calm Calm - N/A   Clear
6:15 PM 66.2 °F - 44.6 °F 46% 30.20 in 10.0 mi SSW 4.6 mph - N/A   Clear
6:35 PM 62.6 °F - 46.4 °F 55% 30.19 in 10.0 mi SW 3.5 mph - N/A   Clear
6:50 PM 66.2 °F - 46.4 °F 49% 30.19 in 10.0 mi WSW 3.5 mph - N/A   Clear
6:55 PM 62.6 °F - 46.4 °F 55% 30.19 in 10.0 mi SW 3.5 mph - N/A   Clear
7:15 PM 59.0 °F - 46.4 °F 63% 30.19 in 10.0 mi Calm Calm - N/A   Clear
7:35 PM 57.2 °F - 46.4 °F 67% 30.19 in 10.0 mi Calm Calm - N/A   Clear
7:45 PM 57.2 °F - 46.4 °F 67% 30.19 in 10.0 mi Calm Calm - N/A   Clear
7:55 PM 55.4 °F - 44.6 °F 67% 30.19 in 10.0 mi Calm Calm - N/A   Clear
8:15 PM 55.4 °F - 44.6 °F 67% 30.19 in 10.0 mi Calm Calm - N/A   Clear
8:35 PM 53.6 °F - 44.6 °F 72% 30.20 in 10.0 mi Calm Calm - N/A   Clear
8:45 PM 53.6 °F - 44.6 °F 72% 30.21 in 10.0 mi Calm Calm - N/A   Clear
8:55 PM 53.6 °F - 44.6 °F 72% 30.21 in 10.0 mi Calm Calm - N/A   Clear